Terminal Aerodrome Forecast
Issued by NWS

Home | Current Version | Previous Version | Text Only | Print | Product List | Glossary On
Versions: 1 2 3 4 5 6 7 8 9 10 11 12 13 14 15 16 17 18 19
000
FTUS45 KRIW 272300
TAFJAC
TAF
KJAC 272320Z 2800/2824 29008KT P6SM SCT080
     FM280200 VRB04KT P6SM FEW090
     FM280600 36006KT P6SM SKC
     FM281700 22007KT P6SM FEW080
      AMD LTD TO CLD VIS AND WIND=

USA.gov is the U.S. government's official web portal to all federal, state and local government web resources and services.